Overview Statistics Trail Chart Weather Telemetry Raw packets
 

This is the latest recevied weather packets stored in our database for station/object N9XRG. If no packets are shown the sender has not sent any weather packets the latest 10 day(s).

<< 1 2 3 4 5 >>
Time Temp. Humidity Pressure Rain* Wind** Luminosity Snow
1788570836 25° C 95% 1013.7 hPa 0 mm - 0 W/m² -
1788570532 25° C 95% 1013.7 hPa 0 mm - 0 W/m² -
1788570227 25° C 95% 1013.9 hPa 0 mm - 0 W/m² -
1788569923 25° C 95% 1013.8 hPa 0 mm - 0 W/m² -
1788569619 25° C 94% 1013.6 hPa 0 mm - 0 W/m² -
1788569314 25° C 94% 1013.7 hPa 0 mm - 0 W/m² -
1788569013 25° C 94% 1013.6 hPa 0 mm - 0 W/m² -
1788568709 25.56° C 94% 1013.3 hPa 0 mm - 0 W/m² -
1788568406 25.56° C 93% 1013.6 hPa 0 mm - 0 W/m² -
1788568101 25.56° C 93% 1013.6 hPa 0 mm - 0 W/m² -
1788567800 25.56° C 93% 1013.4 hPa 0 mm - 0 W/m² -
1788567495 25.56° C 92% 1013.2 hPa 0 mm - 1 W/m² -
1788567194 26.11° C 92% 1013.4 hPa 0 mm - 2 W/m² -
1788566891 26.11° C 92% 1013.6 hPa 0 mm - 3 W/m² -
1788566586 26.11° C 91% 1013.5 hPa 0 mm - 6 W/m² -
1788566281 26.67° C 90% 1013.2 hPa 0 mm - 8 W/m² -
1788565976 26.67° C 90% 1013.3 hPa 0 mm - 10 W/m² -
1788565676 26.67° C 89% 1013.4 hPa 0 mm - 13 W/m² -
1788565366 26.67° C 89% 1013.4 hPa 0 mm - 17 W/m² -
1788565061 27.22° C 88% 1013.4 hPa 0 mm - 22 W/m² -
1788564758 27.22° C 87% 1013.3 hPa 0 mm - 24 W/m² -
1788564454 27.78° C 85% 1013.5 hPa 0 mm - 24 W/m² -
1788564150 28.33° C 83% 1013.5 hPa 0 mm - 27 W/m² -
1788563845 28.33° C 82% 1013.5 hPa 0 mm - 33 W/m² -
1788563541 28.89° C 82% 1013.3 hPa 0 mm - 35 W/m² -

* Rain latest hour (hover to see other rain measurements)
** Current wind speed in m/s (hover to see current wind gust speed)